Orlando, FL

1:12 PM EST on December 03, 2016 (GMT -0500)
Orlando International

Weather History for KMCO - November, 2013

Change the Weather History Date:

Sunday, November 3, 2013

  Actual Average Record
Temperature  
Mean Temperature 68 °F 71 °F  
Max Temperature 77 °F 81 °F 90 °F (2015)
Min Temperature 58 °F 61 °F 36 °F (1954)
Degree Days  
Heating Degree Days 0 1  
Month to date heating degree days 0 3  
Since 1 July heating degree days 0 8  
Cooling Degree Days 3 7  
Month to date cooling degree days 20 21  
Year to date cooling degree days 3380 3228  
Growing Degree Days 17 (Base 50)    
Moisture  
Dew Point 52 °F    
Average Humidity 63    
Maximum Humidity 93    
Minimum Humidity 33    
Precipitation  
Precipitation 0.00 in 0.08 in 3.57 in (1987)
Month to date precipitation 0.27 0.23  
Year to date precipitation 41.79 46.21  
Sea Level Pressure  
Sea Level Pressure 30.05 in    
Wind  
Wind Speed 11 mph (North)    
Max Wind Speed 23 mph    
Max Gust Speed 31 mph    
Visibility 10 miles    
Events      
T = Trace of Precipitation, MM = Missing Value Source: NWS Daily Summary

Daily Weather History Graph

Daily Weather History Graph

Search for Another Location

Airport or City:

Trip Planner

Search our weather history database for the weather conditions in past years. The results will help you decide how hot, cold, wet, or windy it might be!

Date:

Astronomy

Nov. 03, 2013 Rise Set
Actual Time 6:38 AM EST 5:38 PM EST
Civil Twilight 6:14 AM EST 6:02 PM EST
Nautical Twilight 5:46 AM EST 6:30 PM EST
Astronomical Twilight 5:18 AM EST 6:58 PM EST
Moon 6:39 AM EST 5:55 PM EST
Length of Visible Light 11h 48m
Length of Day
10h 59m
New Moon, 0% of the Moon is Illuminated
Nov 3
New Moon
Nov 10
First Quarter
Nov 17
Full
Nov 25
Last Quarter
Dec 2
New

Hourly Weather History & Observations

Time (EST) Temp. Dew Point Humidity Pressure Visibility Wind Dir Wind Speed Gust Speed Precip Events Conditions
12:53 AM 62.1 °F 60.1 °F 93% 29.99 in 10.0 mi NW 3.5 mph - N/A   Scattered Clouds
1:53 AM 62.1 °F 59.0 °F 90% 29.98 in 10.0 mi NW 4.6 mph - N/A   Partly Cloudy
1:53 AM 63.0 °F 57.9 °F 84% 29.98 in 10.0 mi NW 6.9 mph - N/A   Scattered Clouds
2:53 AM 62.1 °F 59.0 °F 90% 29.98 in 10.0 mi NW 4.6 mph - N/A   Clear
3:53 AM 62.1 °F 60.1 °F 93% 29.99 in 9.0 mi NW 6.9 mph - N/A   Clear
4:53 AM 62.1 °F 59.0 °F 90% 29.99 in 10.0 mi NNW 9.2 mph - N/A   Clear
5:53 AM 60.1 °F 53.1 °F 78% 30.01 in 10.0 mi North 10.4 mph - N/A   Clear
6:53 AM 57.9 °F 53.1 °F 84% 30.03 in 10.0 mi North 8.1 mph - N/A   Clear
7:53 AM 62.1 °F 55.0 °F 78% 30.06 in 10.0 mi NNW 10.4 mph - N/A   Clear
8:53 AM 66.9 °F 55.9 °F 68% 30.08 in 10.0 mi North 10.4 mph - N/A   Clear
9:53 AM 71.1 °F 55.9 °F 59% 30.09 in 10.0 mi North 12.7 mph - N/A   Clear
10:53 AM 75.0 °F 48.0 °F 38% 30.09 in 10.0 mi NNE 13.8 mph - N/A   Partly Cloudy
11:53 AM 75.9 °F 44.1 °F 32% 30.07 in 10.0 mi NNW 12.7 mph - N/A   Partly Cloudy
12:53 PM 75.9 °F 46.0 °F 35% 30.05 in 10.0 mi North 11.5 mph 20.7 mph N/A   Partly Cloudy
1:53 PM 75.9 °F 48.0 °F 37% 30.03 in 10.0 mi NNE 18.4 mph 23.0 mph N/A   Partly Cloudy
2:53 PM 75.9 °F 45.0 °F 33% 30.04 in 10.0 mi NE 15.0 mph - N/A   Partly Cloudy
3:53 PM 73.9 °F 46.9 °F 38% 30.04 in 10.0 mi NE 18.4 mph 24.2 mph N/A   Partly Cloudy
4:53 PM 72.0 °F 48.0 °F 43% 30.06 in 10.0 mi NNE 17.3 mph - N/A   Partly Cloudy
5:53 PM 68.0 °F 46.9 °F 47% 30.08 in 10.0 mi NNE 13.8 mph - N/A   Clear
6:53 PM 66.0 °F 48.9 °F 54% 30.10 in 10.0 mi North 10.4 mph - N/A   Clear
7:53 PM 64.0 °F 50.0 °F 60% 30.11 in 10.0 mi North 10.4 mph - N/A   Clear
8:53 PM 63.0 °F 51.1 °F 65% 30.12 in 10.0 mi North 10.4 mph - N/A   Partly Cloudy
9:53 PM 62.1 °F 52.0 °F 70% 30.13 in 10.0 mi North 8.1 mph - N/A   Partly Cloudy
10:53 PM 61.0 °F 53.1 °F 75% 30.13 in 10.0 mi North 6.9 mph - N/A   Partly Cloudy